Dauntless Aviation
Greetings, Guest! To participate, [sign up for a free account] or [log in]
Airports Europe Germany
EDSW

Altdorf-Wallburg

Altdorf-Wallburg, GERMANY

Airport Info
Edit

Location

Latitude / Longitude: 48°16'11"N / 7°50'31"E
  48°16.188'N / 7°50.532'E
  48.2698 / 7.8422
Satellite photo at:
Airport distance calculator
From:
Weather Reports

METAR

EDTL
5.8nm NW
EDTL 301720Z 11003KT CAVOK 12/09 Q1025
LFST
18.2nm NW
LFST 301730Z AUTO 34003KT 320V020 9000 NSC 11/10 Q1025
EDSB
32.3nm N
EDSB 301720Z 07002KT CAVOK 12/10 Q1025

TAF

EDTL
5.8nm NW
TAF EDTL 301400Z 3015/3024 VRB03KT 9999 SCT040 BECMG 3021/3024 4000 BR
LFST
18.2nm NW
TAF LFST 301100Z 3012/3112 16005KT 9999 SCT040 BECMG 3018/3021 3000 BR BECMG 3021/3023 0200 FG VV/// BECMG 3109/3111 3000 BR BKN005
EDSB
32.3nm N
TAF EDSB 301100Z 3012/3112 VRB03KT 9999 SCT025 BECMG 3021/3024 4000 BR BECMG 3100/3103 2000 BR BKN004 TEMPO 3103/3109 0500 FG BKN001 BECMG 3108/3110 4000 BR SCT004 BKN008 BECMG 3110/3112 6000 SCT008
Safelog

 

Dauntless Aviation

© 2007-2014 Dauntless Aviation, all rights reserved
Information provided via PilotNav comes from a variety of official and unofficial data sources. As errors are possible, do not use PilotNav for primary flight planning purposes. Verify any information that you receive via PilotNav with current and canonical charts and other official documents. The material in this database is subject to database copyrights held by Dauntless Aviation and may not be copied without the express permission of Dauntless Aviation - licenses for use of part of all of this data are available for purchase; enquire via the Dauntless Aviation helpdesk. A number of mechanisms and markers exist in the database to protect against and identify infringement / copyright. Automated queries against this website are stictly prohibited, and all activity is logged and analyzed.